Weather in Ende

Indonesia     8°50′28″S   121°39′32″E
temp.,
°C
wind,
m/s
gust,
m/s
humid.,
%
clouds,
%
prec.,
mm/h
press.,
hPa
HPBL,
m
20 january, thu
thu2023:00+19ssw1294100 0.0 101071
02:00+19ssw1396100 0.4 1008105
05:00+20ssw2496100 0.4 1009156
08:00+21ssw2495100 1.0 1010271
11:00+21ssw2490100 0.3 1010361
14:00+21ssw1289100 0.8 1008104
17:00+21sw1490100 0.3 1008275
20:00+20ssw1395100 0.6 1010154
21 january, fri
fri2123:00+20ssw1293100 0.1 101186
02:00+20ssw1491100 0.2 1008163
05:00+20s1494100 0.2 1009163
08:00+20ssw1594100 0.6 1011383
11:00+22sw1483100 0.1 1010423
14:00+23sw2478100 0.6 1008786
17:00+21ssw1392100 0.1 1008214
20:00+20ne0193100 0.3 100928
22 january, sat
sat2223:00+20nnw0186100 0.0 101020
02:00+20n117980 0.0 100819
05:00+18n229335 0.0 100851
08:00+23nnw127792 0.0 1009399
11:00+26w2462100 0.0 10081267
14:00+23wsw2390100 1.2 1007644
17:00+21sw2496100 2.5 1007313
20:00+21sse1197100 3.1 100864
23 january, sun
sun2323:00+20ne1193100 0.2 100826
02:00+20n1195100 0.2 100635
05:00+20n229791 0.1 100782
08:00+23n128828 0.2 1008257
11:00+24nw237897 0.4 1007610
14:00+27w226754 1.3 10051148
17:00+23nw128782 1.3 1005464
20:00+21nne239758 1.8 1008114
24 january, mon
mon2423:00+20nne129836 0.3 100883
02:00+21nne129735 0.5 100674
05:00+20n129737 0.1 100673
08:00+23n128739 0.1 1007318
11:00+27nw236690 0.1 10061165
14:00+26wnw227762 1.4 1004804
17:00+24nnw128734 1.8 1005475
20:00+21nne139764 2.9 1007116